Regional Weather Roundup
Issued by NWS

Home | Current Version | Previous Version | Graphics & Text | Print | Product List | Glossary On
Versions: 1 2 3 4 5 6 7 8 9 10 11 12 13 14 15 16 17 18 19 20 21 22 23 24 25 26 27 28 29 30 31 32 33 34 35 36 37 38 39 40 41 42 43 44 45 46 47 48 49 50
000
ASUS43 KBIS 172210
RWRND

NORTH DAKOTA REGIONAL WEATHER ROUNDUP
NATIONAL WEATHER SERVICE BISMARCK ND
400 PM CST TUE JAN 17 2017

NOTE: "FAIR" INDICATES FEW OR NO CLOUDS BELOW 12,000 FEET WITH NO
SIGNIFICANT WEATHER AND/OR OBSTRUCTIONS TO VISIBILITY.


NDZ001>003-009>011-017-172300-
NORTHWEST NORTH DAKOTA

CITY           SKY/WX    TMP DP  RH WIND       PRES   REMARKS
WILLISTON      FAIR      29  20  69 SW15      29.70S WCI  18
MINOT          FAIR      33  20  58 SW21      29.65S
$$

NDZ018>021-031>035-040>046-172300-
SOUTHWEST NORTH DAKOTA

CITY           SKY/WX    TMP DP  RH WIND       PRES   REMARKS
BISMARCK       FAIR      33  18  53 SW3       29.80F
DICKINSON      FAIR      30  21  69 SW14      29.74S WCI  19
GARRISON         N/A     30  21  69 S5        29.72S
HETTINGER ARPT CLOUDY    32  20  61 W8        29.81S
$$

NDZ004>008-012>016-024-026-027-054-172300-
NORTHEAST NORTH DAKOTA

CITY           SKY/WX    TMP DP  RH WIND       PRES   REMARKS
GRAND FORKS    CLOUDY    22  16  78 S16       29.80F WCI   8
GRND FRKS AFB  CLOUDY    26  19  77 S13       29.78F WCI  14
DEVILS LAKE    FAIR      27  19  72 SW14      29.71F WCI  16
$$

NDZ022-023-025-028>030-036>039-047>053-172300-
SOUTHEAST NORTH DAKOTA

CITY           SKY/WX    TMP DP  RH WIND       PRES   REMARKS
FARGO          CLOUDY    26  20  77 S16       29.88F WCI  14
JAMESTOWN      FAIR      30  20  66 SW15      29.80S WCI  19
$$





USA.gov is the U.S. government's official web portal to all federal, state and local government web resources and services.